This demonstration page uses our WeatherBlox Daily Observations layout. Learn more.

Left ArrowRight Arrow

34.02893, -84.19858

Hourly Observations for June 13, 2020

Temp ( °F °C ) Dew Point ( °F °C ) Humidity (%) Winds ( mph kmh ) Pressure ( in mb ) Visibility ( mi km ) Precip ( " mm )
12:53 am 00:53 Clear 70 21.1 64 17.8 82 82 ENE 3 6 30.06 1018 10 16 0.00 0.00
1:53 am 01:53 Mostly Cloudy 72 22.2 62 16.7 71 71 NE 3 6 30.06 1018 10 16 0.00 0.00
2:53 am 02:53 Cloudy 70 21.1 65 18.3 84 84 Calm 30.05 1018 10 16 0.00 0.00
3:53 am 03:53 Mostly Cloudy 71 21.7 62 16.7 73 73 Calm 30.04 1017 10 16 0.00 0.00
4:53 am 04:53 Partly Cloudy 69 20.6 62 16.7 78 78 NNE 3 6 30.05 1018 10 16 0.00 0.00
5:53 am 05:53 Partly Cloudy 67 19.4 62 16.7 84 84 NNE 3 6 30.06 1018 10 16 0.00 0.00
6:53 am 06:53 Mostly Cloudy 68 20 62 16.7 81 81 N 3 6 30.08 1019 10 16 0.00 0.00
7:53 am 07:53 Mostly Cloudy 70 21.1 61 16.1 73 73 Calm 30.10 1019 10 16 0.00 0.00
8:53 am 08:53 Mostly Cloudy 74 23.3 60 15.6 62 62 NE 3 6 30.11 1020 10 16 0.00 0.00
9:53 am 09:53 Sunny 77 25 60 15.6 56 56 VRB 3 6 30.10 1019 10 16 0.00 0.00
10:53 am 10:53 Sunny 80 26.7 60 15.6 51 51 NNE 8 13 30.10 1019 10 16 0.00 0.00
11:53 am 11:53 Sunny 81 27.2 58 14.4 45 45 VRB 3 6 30.10 1019 10 16 0.00 0.00
12:53 pm 12:53 Mostly Cloudy 82 27.8 56 13.3 41 41 Calm 30.09 1019 10 16 0.00 0.00
1:53 pm 13:53 Mostly Cloudy 84 28.9 55 12.8 37 37 NNE 7 11 30.07 1018 10 16 0.00 0.00
2:53 pm 14:53 Partly Cloudy 85 29.4 54 12.2 35 35 VRB 6 9 30.05 1018 10 16 0.00 0.00
3:53 pm 15:53 Mostly Cloudy 82 27.8 55 12.8 40 40 Calm 30.05 1018 10 16 0.00 0.00
4:53 pm 16:53 Mostly Sunny 84 28.9 55 12.8 37 37 Calm 30.04 1017 10 16 0.00 0.00
5:53 pm 17:53 Mostly Cloudy 85 29.4 56 13.3 37 37 VRB 5 7 30.02 1017 10 16 0.00 0.00
6:53 pm 18:53 Mostly Cloudy 82 27.8 55 12.8 40 40 E 3 6 30.03 1017 10 16 0.00 0.00
7:53 pm 19:53 Mostly Sunny 81 27.2 55 12.8 41 41 E 3 6 30.03 1017 10 16 0.00 0.00
8:53 pm 20:53 Clear 75 23.9 59 15 58 58 N 6 9 30.04 1017 10 16 0.00 0.00
9:53 pm 21:53 Mostly Cloudy 74 23.3 61 16.1 64 64 NNE 3 6 30.06 1018 10 16 0.00 0.00
10:53 pm 22:53 Clear 70 21.1 61 16.1 73 73 Calm 30.08 1019 10 16 0.00 0.00
11:53 pm 23:53 Clear 67 19.4 62 16.7 84 84 Calm 30.09 1019 10 16 0.00 0.00

Powered by AerisWeather